Zurück zum Katalog

FENGYUN 1C DEB

AktivPO
NORAD 35144·DEBRIS·🇨🇳 China

Gestartet May 10, 1999 von Taiyuan Satellite Launch Center

Loading…

Nächste Überflüge (nächste 24 Stunden)

TLE

AktuellSource: Space-Track

Epoche: Sep 13, 2026, 19:57 UTC

1 35144U 99025DLY 26256.83159006  .00007500  00000-0  13844-2 0  9999
2 35144  98.7137  32.1625 0024225 232.0292 127.8722 14.65588138692351

Verfolge FENGYUN 1C DEB in Echtzeit mit AllMySat

Download on the App Store